Change the Weather History Date:

Tuesday, February 4, 2014

  Actual Average Record
Temperature  
Mean Temperature 22 °F -  
Max Temperature 26 °F 40 °F 70 °F (2008)
Min Temperature 18 °F 24 °F 10 °F (2007)
Degree Days  
Heating Degree Days 42    
Moisture  
Dew Point 17 °F    
Average Humidity 81    
Maximum Humidity 86    
Minimum Humidity 75    
Precipitation  
Precipitation 0.12 in - - ()
Sea Level Pressure  
Sea Level Pressure 30.13 in    
Wind  
Wind Speed 12 mph (NE)    
Max Wind Speed 18 mph    
Max Gust Speed 28 mph    
Visibility 2 miles    
Events Fog , Snow    
Averages and records for this station are not official NWS values.
T = Trace of Precipitation, MM = Missing Value Source: NWS Daily Summary

Daily Weather History Graph

Daily Weather History Graph

Search for Another Location

Airport or City:

Trip Planner

Search our weather history database for the weather conditions in past years. The results will help you decide how hot, cold, wet, or windy it might be!

Date:

Astronomy

Feb. 04, 2014 Rise Set
Actual Time 7:22 AM CST 5:42 PM CST
Civil Twilight 6:54 AM CST 6:10 PM CST
Nautical Twilight 6:22 AM CST 6:42 PM CST
Astronomical Twilight 5:51 AM CST 7:14 PM CST
Moon 10:03 AM CST (2/4) 11:34 PM CST (2/4)
Length of Visible Light 11h 16m
Length of Day
10h 20m
Waxing Crescent, 29% of the Moon is Illuminated
Feb 4
Waxing Crescent
Feb 6
First Quarter
Feb 14
Full
Feb 22
Last Quarter
Mar 1
New

Hourly Weather History & Observations

Time (CST) Temp. Windchill Dew Point Humidity Pressure Visibility Wind Dir Wind Speed Gust Speed Precip Events Conditions
12:54 AM 26.1 °F 16.8 °F 19.0 °F 75% 30.25 in 10.0 mi ENE 9.2 mph - N/A   Overcast
1:54 AM 26.1 °F 16.8 °F 19.0 °F 75% 30.25 in 10.0 mi ENE 9.2 mph - N/A   Overcast
2:54 AM 26.1 °F 17.6 °F 19.0 °F 75% 30.26 in 10.0 mi ENE 8.1 mph - N/A   Overcast
3:54 AM 25.0 °F 15.5 °F 18.0 °F 75% 30.25 in 10.0 mi East 9.2 mph - N/A   Overcast
4:54 AM 25.0 °F 17.1 °F 18.0 °F 75% 30.26 in 10.0 mi ENE 6.9 mph - N/A   Overcast
5:54 AM 25.0 °F 13.6 °F 18.0 °F 75% 30.26 in 10.0 mi ENE 12.7 mph - N/A   Overcast
6:54 AM 24.1 °F 12.5 °F 18.0 °F 77% 30.23 in 6.0 mi ENE 12.7 mph - 0.00 in   Haze
7:54 AM 24.1 °F 11.0 °F 17.1 °F 75% 30.19 in 6.0 mi East 16.1 mph - 0.00 in Snow Light Snow
8:04 AM 23.0 °F 10.6 °F 17.1 °F 78% 30.18 in 1.8 mi East 13.8 mph - 0.00 in Snow Light Snow
8:17 AM 23.0 °F 11.1 °F 18.0 °F 81% 30.20 in 0.8 mi East 12.7 mph - 0.00 in Snow Light Snow
8:25 AM 23.0 °F 12.4 °F 18.0 °F 81% 30.19 in 1.2 mi East 10.4 mph - 0.00 in Snow Light Snow
8:48 AM 23.0 °F 11.7 °F 17.6 °F 80% 30.20 in 1.0 mi ENE 11.5 mph - 0.00 in Snow Light Snow
8:54 AM 23.0 °F 12.4 °F 19.0 °F 85% 30.23 in 0.8 mi ENE 10.4 mph - 0.00 in Snow Light Snow
9:08 AM 23.0 °F 11.7 °F 19.0 °F 85% 30.17 in 0.5 mi ENE 11.5 mph - 0.00 in Fog , Snow Snow
9:15 AM 23.0 °F 10.1 °F 19.0 °F 85% 30.17 in 0.5 mi ENE 15.0 mph - 0.00 in Fog , Snow Snow
9:43 AM 23.0 °F 11.1 °F 19.0 °F 85% 30.15 in 0.5 mi ENE 12.7 mph - 0.01 in Fog , Snow Snow
9:50 AM 23.0 °F 11.1 °F 19.4 °F 86% 30.15 in 0.8 mi ENE 12.7 mph - 0.01 in Snow Light Snow
9:54 AM 23.0 °F 11.7 °F 19.0 °F 85% 30.18 in 0.8 mi ENE 11.5 mph - 0.01 in Snow Light Snow
10:12 AM 23.0 °F 8.7 °F 19.0 °F 85% 30.15 in 0.5 mi ENE 18.4 mph 25.3 mph 0.00 in Fog , Snow Snow
10:24 AM 23.0 °F 10.1 °F 19.0 °F 85% 30.15 in 0.2 mi ENE 15.0 mph 24.2 mph 0.00 in Fog , Snow Snow
10:54 AM 24.1 °F 11.5 °F 19.0 °F 81% 30.18 in 0.2 mi ENE 15.0 mph - 0.01 in Snow Heavy Snow
11:22 AM 24.1 °F 12.0 °F 19.0 °F 81% 30.14 in 0.2 mi ENE 13.8 mph - 0.01 in Snow Heavy Snow
11:37 AM 23.0 °F 10.1 °F 19.0 °F 85% 30.12 in 0.2 mi ENE 15.0 mph - 0.01 in Fog , Snow Snow
11:54 AM 23.0 °F 8.7 °F 19.0 °F 85% 30.13 in 0.2 mi ENE 18.4 mph - 0.01 in Fog , Snow Heavy Snow
12:39 PM 23.0 °F 11.1 °F 19.0 °F 85% 30.08 in 0.2 mi ENE 12.7 mph 23.0 mph 0.01 in Fog , Snow Snow
12:54 PM 23.0 °F 9.2 °F 19.0 °F 85% 30.08 in 0.5 mi ENE 17.3 mph - 0.01 in Fog , Snow Snow
1:17 PM 23.0 °F 8.7 °F 19.0 °F 85% 30.05 in 0.2 mi NE 18.4 mph - 0.00 in Fog , Snow Snow
1:40 PM 23.0 °F 12.4 °F 19.0 °F 85% 30.09 in 0.5 mi ENE 10.4 mph - 0.01 in Fog , Snow Snow
1:47 PM 23.0 °F 11.1 °F 19.0 °F 85% 30.08 in 0.5 mi ENE 12.7 mph - 0.01 in Fog , Snow Snow
1:54 PM 23.0 °F 12.4 °F 19.0 °F 85% 30.11 in 0.5 mi NE 10.4 mph - 0.01 in Fog , Snow Snow
2:54 PM 24.1 °F 12.0 °F 19.0 °F 81% 30.06 in 0.5 mi NE 13.8 mph - 0.04 in Snow Snow
3:43 PM 23.0 °F 10.1 °F 18.0 °F 81% 30.03 in 0.8 mi NE 15.0 mph - 0.01 in Snow Light Snow
3:54 PM 23.0 °F 9.6 °F 18.0 °F 81% 30.05 in 1.0 mi NE 16.1 mph - 0.01 in Snow Light Snow
4:18 PM 23.0 °F 9.6 °F 18.0 °F 81% 30.03 in 1.2 mi NE 16.1 mph 20.7 mph 0.00 in Snow Light Snow
4:25 PM 21.9 °F 9.2 °F 17.1 °F 82% 30.03 in 1.0 mi NE 13.8 mph - 0.00 in Snow Light Snow
4:34 PM 21.9 °F 8.2 °F 17.1 °F 82% 30.03 in 0.8 mi NE 16.1 mph - 0.00 in Snow Light Snow
4:41 PM 21.9 °F 8.7 °F 17.1 °F 82% 30.03 in 1.0 mi NE 15.0 mph - 0.00 in Snow Light Snow
4:54 PM 21.9 °F 8.2 °F 17.1 °F 82% 30.06 in 1.2 mi NE 16.1 mph - 0.00 in Snow Light Snow
5:35 PM 21.9 °F 8.7 °F 16.0 °F 78% 30.04 in 0.8 mi NE 15.0 mph 24.2 mph 0.01 in Snow Light Snow
5:44 PM 21.0 °F 6.2 °F 16.0 °F 81% 30.04 in 1.2 mi NE 18.4 mph - 0.01 in Snow Light Snow
5:54 PM 21.0 °F 8.1 °F 16.0 °F 81% 30.07 in 1.8 mi NE 13.8 mph - 0.01 in Snow Light Snow
6:03 PM 21.0 °F 7.6 °F 16.0 °F 81% 30.04 in 2.5 mi NE 15.0 mph - 0.00 in Snow Light Snow
6:22 PM 21.0 °F 6.2 °F 16.0 °F 81% 30.05 in 1.5 mi NE 18.4 mph - 0.00 in Snow Light Snow
6:54 PM 21.0 °F 8.6 °F 16.0 °F 81% 30.10 in 1.0 mi NNE 12.7 mph - 0.00 in Snow Light Snow
7:02 PM 21.0 °F 6.6 °F 16.0 °F 81% 30.07 in 0.8 mi NNE 17.3 mph - 0.00 in Snow Light Snow
7:54 PM 19.9 °F 6.7 °F 15.1 °F 81% 30.12 in 1.0 mi NNE 13.8 mph - 0.01 in Snow Light Snow
8:54 PM 19.9 °F 7.9 °F 15.1 °F 81% 30.15 in 0.8 mi NNE 11.5 mph - 0.00 in Snow Light Snow
9:02 PM 19.9 °F 7.3 °F 15.1 °F 81% 30.12 in 1.0 mi NNE 12.7 mph - 0.00 in Snow Light Snow
9:14 PM 19.9 °F 9.3 °F 15.1 °F 81% 30.13 in 0.8 mi North 9.2 mph - 0.00 in Snow Light Snow
9:54 PM 19.9 °F 8.6 °F 15.1 °F 81% 30.17 in 0.8 mi North 10.4 mph - 0.00 in Snow Light Snow
10:02 PM 19.9 °F 5.2 °F 15.1 °F 81% 30.13 in 0.8 mi North 17.3 mph 23.0 mph 0.00 in Snow Light Snow
10:23 PM 19.0 °F 5.0 °F 15.1 °F 85% 30.13 in 1.0 mi North 15.0 mph - 0.00 in Snow Light Snow
10:54 PM 19.9 °F 5.7 °F 14.0 °F 78% 30.17 in 1.0 mi North 16.1 mph - 0.00 in Snow Light Snow
11:01 PM 19.0 °F 4.5 °F 14.0 °F 81% 30.14 in 0.8 mi North 16.1 mph 27.6 mph 0.00 in Snow Light Snow
11:26 PM 19.0 °F 5.6 °F 14.0 °F 81% 30.14 in 1.0 mi North 13.8 mph - 0.00 in Snow Light Snow
11:54 PM 18.0 °F 4.2 °F 12.9 °F 81% 30.19 in 1.2 mi North 13.8 mph 23.0 mph 0.00 in Snow Light Snow